Погода в Зиме

Погода в Зиме : погода сейчас, прогноз погоды и архив. Всё, что Вы хотите узнать о погоде в Зиме!

Поиск расширенной информации на нашем сайте:

Другие новости

Новости СМИ2

Главная страница сайта

Новости сайта

02.10.2013

Напоминаем, что на нашем новом сайте вы можете получить высокодетализированные прогнозы погоды по пунктам России, СНГ и мира (включающие важные для авиации метеовеличины, такие как направление и скорость ветра, видимость, явления погоды, количество и форма облачности, нижняя и верхняя граница облачности), а также ознакомиться с разнообразными материалами по авиационной метеорологии и подборкой полезных ссылок на эту тему.

Сайт Метеоцентр.Азия посвящён разработке технологий оптимизации авиаметеорологического обслуживания, включая проектирование и перспективное создание нескольких автоматизированных авиаметеорологических систем:
- система выпуска высокодетальных прогностических карт явлений погоды для нижнего воздушного пространства по России и ближнему зарубежью;
- система верификации прогнозов TAF (выпускаемых синоптиками официальных АМСГ РФ и ближнего зарубежья) и AUTOTAF (выпускаемых сайтом Метеоцентр.Азия) - выявление ошибок, онлайн-сопоставление с фактической погодой METAR, автоматическое внесение коррективов в прогнозы при резком отклонении фактической погоды от прогноза, подсчёт оправдываемости прогнозов по элементам и в целом;
- система обработки, анализа и отображения авиаметеорологической информации для применения провайдерами метеорологической информации.

Рекомендуем: Воздушная завеса Wing E150

Погода в Зиме - сегодня

Время (UTC), дата Ветер
(°,м/с) 
Видим.   Явления Облачность Т
(°С)
Тd
(°С)
f(%) Тe
(°С)
Pmin
(гПа)
dP
(гПа)
Po
(мм)
O2
(г/м3)
Тmin Tmax R s Состояние
почвы
18 16.02.17 350 (С) н/о    ясно 
-26.8 -30 74 -27  1035.3  -1.8  729  328           
21 16.02.17 320 (СЗ) н/о    ясно 
-26.8 -30 74 -27  1033.4  -1.8  728  327           
00 17.02.17 тихо ()   н/о    ясно 
-30 -33.7 70 -30  1034.1  -0.2  728  331  -30.5      28  равномерный
сухой снег
100% 
03 17.02.17 тихо ()   4000 м  дымка  ясно 
-23.7 -27 74 -24  1031.5  -0.8  727  322  -30.7         
06 17.02.17 160 (Ю) 20000 м    ясно 
-14 -21.1 55 -14  1026.9  -2.2  725  310           
09 17.02.17 110 (В) 20000 м    ясно 
-12.4 -20.7 50 -14  1023.2  -3.1  723  307           
12 17.02.17 тихо ()   н/о    10/0 верхняя 
[Ci fib]
-17.6 -22.6 65 -18  1021.6  -2.6  721  312    -12       
15 17.02.17 тихо ()   н/о    10/5 1000 м средняя, верхняя 
[Sc|Ac trans|Ci fib]
-16.7 -21.7 65 -17  1015  -6  716  309           
18 17.02.17 120 (ЮВ) н/о    10/0 средняя 
[As trans]
-13.3 -21.5 50 -15  1010.5  -3.5  714  304           
21 17.02.17 140 (ЮВ) н/о    10/0 средняя 
[As trans]
-13.8 -20.9 55 -14  1007.7  -2.7  712  304           
00 18.02.17 190 (Ю) н/о  слаб. ливневой снег  10/10 600 м кучево-дожд. 
[Cb cap]
-13.4 -18.6 65 -13  1008.4  0.6  712  303  -18.6    0.0  28  равномерный
сухой снег
100% 
03 18.02.17 320 (СЗ) 20000 м  {ливн. осадки}  10/3 1000 м средняя, верхняя 
[Sc|Ac trans|Ci fib]
-12.3 -15.8 75 -16  1012.9  3.8  716  303           
06 18.02.17 310 (СЗ) 8-14{17}  20000 м  позёмок  10/4 1000 м средняя, верхняя 
[Sc|Ac trans|Ci fib]
-8.9 -15 61 -15  1016.9  4.5  719  301           
09 18.02.17 310 (СЗ) 7-11{16}  20000 м  позёмок  10/0 средняя, верхняя 
[Ac trans|Ci fib]
-8.6 -16.4 53 -14  1021.4  4.2  722  302           
12 18.02.17 320 (СЗ) н/о    4/0 верхняя 
[Ci fib]
-11 -17.2 60 -13  1026.2  725  306    -8.2  0.4     
15 18.02.17 330 (СЗ) н/о    ясно 
-15.5 -18.9 75 -16  1030  2.6  727  312           
18 18.02.17 150 (ЮВ) н/о    ясно 
-20.8 -23.3 80 -21  1031.9  0.7  728  319           
21 18.02.17 тихо ()   н/о    ясно 
-24.5 -27.7 75 -25  1033.4  0.4  728  324           
00 19.02.17 тихо ()   н/о    ясно 
-25.6 -28.8 74 -26  1034  0.3  728  326  -26.6      28  равномерный
сухой снег
100% 
03 19.02.17 тихо ()   20000 м    ясно 
-20.2 -22.8 80 -20  1032.9  0.3  728  319  -27.7         
06 19.02.17 160 (Ю) 20000 м    3/0 верхняя 
[Ci fib]
-8.6 -16.4 53 -11  1028.7  -1.4  727  304           
09 19.02.17 140 (ЮВ) 20000 м    ясно 
-8 -16.7 50 -10  1027.2  -1.3  726  303           
12 19.02.17 тихо ()   н/о    ясно 
-15.8 -19.2 75 -16  1026.9  -1.9  725  312    -7.6       
15 19.02.17 тихо ()   н/о    ясно 
-19.6 -22.2 80 -20  1026.3  -1.5  724  316           
18 19.02.17 тихо ()   н/о    ясно 
-22 -24.6 79 -22  1024.9  -1.9  722  318           
Время (UTC), дата Ветер
(°,м/с) 
Видим.   Явления Облачность Т
(°С)
Тd
(°С)
f(%) Тe
(°С)
Pmin
(гПа)
dP
(гПа)
Po
(мм)
O2
(г/м3)
Тmin Tmax R s Состояние
почвы

Для получения пояснительной информации подведите курсор к названию столбца.

ПОГОДА в Зиме - архив

Всё, что Вы хотите узнать о погоде в Зиме - удобно и подробно!

Выберите нужную дату (начиная с 1 января 2015* года) и нажмите кнопку "Найти".
Будут отображены архивные сводки погоды по пункту Зима, начиная с указанной даты.


Отображать данные в формате CSV (для использования в таблицах Excel)


Внимание! Наш архив погоды предназначен исключительно для личного некоммерческого использования в познавательных целях. Если Вам необходимы официальные справки о состоянии погоды (для производственных, юридических, коммерческих и т.п. целей), обращайтесь в органы Росгидромета.

*Примечание: данная дата относится к архиву по метеостанциям СССР (Россия, СНГ, Балтия).
Архив по метеостанциям Зарубежной Европы и Азии (кроме Китая) хранится 10 дней, по другим регионам земного шара (Китай, Африка, Америка, Австралия, Океания) - 1 день.

Зима - район местоположения метеостанции


Название, широта, долгота, высота метеостанции:
Зима 53.9°ш. 102.1°д. 458 м над ур. моря [Российская Федерация]

Дополнительная информация

В oтличие oт бoльшинства пoгoдных сайтoв мы публикуем пoдрoбную метеoинфoрмацию в детальнoм прoфессиoнальнoм фoрмате.

Характеристики температуры и влажнoсти вoздуха измеряются на высoте 2 м в тени вдали oт зданий и деревьев.
Скoрoсть ветра измеряется на высoте 10 м (на урoвне рoста челoвека скoрoсть ветра ниже в 1.5-2 раза). Если метеoстанция нахoдится в гoрoде или в лесу, тo скoрoсть ветра занижена на 2-4 м/с пo сравнению с oткрытым местoм. Скoрoсть ветра над акватoриями крупных рек и oзёр, а также на вершинах хoлмoв на 2-5 м/с выше, чем в oбычных услoвиях.
Атмoсфернoе давление в разных тoчках местнoсти мoжет значительнo oтличаться oт давления на метеoстанции, в зависимoсти oт услoвий рельефа (при пoдъёме на 10 м давление пoнижается примернo на 1 мм рт.ст.).